EA2CW-13 Weather Reports


time (UTC)temp
F
wind
direction
speed
knots
gust
knots
rain 1hr
in
rain 24hr
in
rain mn
in
humidity
%
barometer
mb
20260504035719 60 0.0 0.0 0.00 0.00 0.00 10 1049.8
20260504034143 60 0.0 0.0 0.00 0.00 0.00 10 1050.0
20260504032607 60 0.0 0.0 0.00 0.00 0.00 10 1050.2
20260504031031 60 0.0 0.0 0.00 0.00 0.00 10 1050.3
20260504025455 60 0.0 0.0 0.00 0.00 0.00 10 1050.1
20260504023919 59 0.0 0.0 0.00 0.00 0.00 10 1050.0
20260504022343 59 0.0 0.0 0.00 0.00 0.00 10 1050.1
20260504020807 59 0.0 0.0 0.00 0.00 0.00 10 1050.2
20260504015231 59 0.0 0.0 0.00 0.00 0.00 10 1050.1
20260504013655 59 0.0 0.0 0.00 0.00 0.00 10 1050.3
20260504012119 59 0.0 0.0 0.00 0.00 0.00 10 1050.0
20260504010543 59 0.0 0.0 0.00 0.00 0.00 10 1050.0
20260504005007 59 0.0 0.0 0.00 0.00 0.00 10 1050.1
20260504003431 59 0.0 0.0 0.00 0.00 0.00 10 1050.1
20260504001855 59 0.0 0.0 0.00 0.00 0.00 10 1050.2
20260504000319 59 0.0 0.0 0.00 0.00 0.00 10 1050.3
20260503234743 59 0.0 0.0 0.00 0.00 0.00 10 1050.6
20260503233207 58 0.0 0.0 0.00 0.00 0.00 10 1050.5
20260503231631 59 0.0 0.0 0.00 0.00 0.00 10 1050.4
20260503230056 59 0.0 0.0 0.00 0.00 0.00 10 1050.6
20260503224519 58 0.0 0.0 0.00 0.00 0.00 10 1050.7
20260503222944 58 0.0 0.0 0.00 0.00 0.00 10 1050.4
20260503221407 59 0.0 0.0 0.00 0.00 0.00 10 1050.6
20260503215832 59 0.0 0.0 0.00 0.00 0.00 10 1050.6
20260503214256 59 0.0 0.0 0.00 0.00 0.00 10 1050.2
20260503211144 60 0.0 0.0 0.00 0.00 0.00 10 1049.9
20260503205608 61 0.0 0.0 0.00 0.00 0.00 10 1049.6
20260503204032 61 0.0 0.0 0.00 0.00 0.00 10 1048.8
20260503202456 62 0.0 0.0 0.00 0.00 0.00 10 1048.8
20260503200920 62 0.0 0.0 0.00 0.00 0.00 10 1048.5
20260503195344 61 0.0 0.0 0.00 0.00 0.00 10 1048.5
20260503193808 61 0.0 0.0 0.00 0.00 0.00 10 1048.5
20260503192232 61 0.0 0.0 0.00 0.00 0.00 10 1048.5
20260503190656 60 0.0 0.0 0.00 0.00 0.00 10 1048.5
20260503185120 62 0.0 0.0 0.00 0.00 0.00 10 1048.5
20260503183544 61 0.0 0.0 0.00 0.00 0.00 10 1048.4
20260503182008 61 0.0 0.0 0.00 0.00 0.00 10 1048.4
20260503180432 61 0.0 0.0 0.00 0.00 0.00 10 1048.0
20260503174856 61 0.0 0.0 0.00 0.00 0.00 10 1047.9
20260503173320 62 0.0 0.0 0.00 0.00 0.00 10 1048.0
20260503171744 62 0.0 0.0 0.00 0.00 0.00 10 1047.8
20260503170208 62 0.0 0.0 0.00 0.00 0.00 10 1048.2
20260503130809 73 0.0 0.0 0.00 0.00 0.00 70 1048.7
20260503110321 67 0.0 0.0 0.00 0.00 0.00 69 1049.6
20260503081145 70 0.0 0.0 0.00 0.00 0.00 68 1049.4
20260503072457 67 0.0 0.0 0.00 0.00 0.00 83 1049.6
20260503070921 65 0.0 0.0 0.00 0.00 0.00 86 1049.8
20260503055122 61 0.0 0.0 0.00 0.00 0.00 95 1049.9
20260503053546 60 0.0 0.0 0.00 0.00 0.00 96 1049.9
20260503052010 59 0.0 0.0 0.00 0.00 0.00 96 1049.8
20260503050434 59 0.0 0.0 0.00 0.00 0.00 95 1049.7
20260503044858 59 0.0 0.0 0.00 0.00 0.00 95 1049.7
20260503043322 59 0.0 0.0 0.00 0.00 0.00 95 1049.6
20260503041746 59 0.0 0.0 0.00 0.00 0.00 95 1049.5
20260503040210 59 0.0 0.0 0.00 0.00 0.00 95 1049.6